Location: Sontra
(51.0000°N, 10.0000°E)
Time: 18:07:54
(UTC+00:00)

ISS - Visible Passes

Search period start: 20 October 2020 00:00
Search period end: 30 October 2020 00:00
Orbit: 418 x 419 km, 51.6° (Epoch: 20 October)

Date Brightness Start Highest point End Pass type
(mag) Time Alt. Az. Time Alt. Az. Time Alt. Az.
23 Oct -1.0 04:53:07 10° S 04:55:26 18° SE 04:57:46 10° E visible
24 Oct -0.8 04:06:33 10° SSE 04:07:54 12° SE 04:09:16 10° ESE visible
25 Oct -2.3 04:53:20 10° SW 04:56:25 34° SSE 04:59:32 10° E visible
26 Oct -1.8 04:07:10 17° S 04:08:49 25° SE 04:11:37 10° E visible
27 Oct -1.2 03:21:43 17° SE 03:21:43 17° SE 03:23:32 10° E visible
27 Oct -3.4 04:54:41 13° WSW 04:57:34 63° SSE 05:00:54 10° E visible
28 Oct -3.0 04:09:08 39° SSW 04:09:52 47° SSE 04:13:07 10° E visible
29 Oct -1.5 03:23:30 25° ESE 03:23:30 25° ESE 03:25:18 10° E visible
29 Oct -3.8 04:56:27 18° W 04:58:49 88° N 05:02:12 10° E visible
